Regional Weather Roundup
Issued by NWS

Home | Current Version | Previous Version | Text Only | Print | Product List | Glossary On
Versions: 1 2 3 4 5 6 7 8 9 10 11 12 13 14 15 16 17 18 19 20 21 22 23 24 25 26 27 28 29 30 31 32 33 34 35 36 37 38 39 40 41 42 43 44 45 46 47 48 49 50
000
ASUS45 KABQ 251210
RWRNM
WEATHER ROUNDUP FOR NEW MEXICO
NATIONAL WEATHER SERVICE ALBUQUERQUE NM
600 AM MDT FRI JUL 25 2014

NOTE: "FAIR" MEANS FEW OR NO CLOUDS BELOW 12,000 FEET AGL WITH NO
       SIGNIFICANT WEATHER OR OBSTRUCTIONS TO VISION.

      THIS PRODUCT IS RELEASED AS TWO VERSIONS.  ONE VERSION NEAR
      THE TOP OF THE HOUR CONTAINING PRELIMINARY DATA FROM ALBUQUERQUE
      AND OTHER STATIONS.  A FINAL VERSION WITH ADDITIONAL DATA IS
      ISSUED ABOUT 10 MINUTES AFTER THE HOUR.

NMZ501-503-504-510>518-251300-
NORTHWEST PLATEAU/NORTHCENTRAL MOUNTAINS

CITY           SKY/WX    TMP DP  RH WIND       PRES   REMARKS
FARMINGTON     CLEAR     66  49  54 CALM      30.18S
6HR MIN TEMP:  66; 6HR MAX TEMP:  75;

LOS ALAMOS     CLEAR     67  40  37 S5        30.33R
SANTA FE       CLEAR     64  44  48 VRB3      30.26S
6HR MIN TEMP:  60; 6HR MAX TEMP:  68;

TAOS           CLEAR     52  41  66 N8        30.34R
ANGEL FIRE     FAIR      43  38  82 CALM      30.43S

$$
NMZ402-403-502-505>509-251300-
WESTCENTRAL MOUNTAINS/SOUTHWEST MOUNTAINS

CITY           SKY/WX    TMP DP  RH WIND       PRES   REMARKS
GALLUP         CLEAR     55  41  59 CALM      30.29R
6HR MIN TEMP:  55; 6HR MAX TEMP:  70;

GRANTS         CLEAR     56  45  66 NW5       30.31S
SILVER CITY    CLEAR     64  41  42 NE9       30.22S

$$
NMZ407-409-411-412-251300-
SOUTHERN DESERTS

CITY           SKY/WX    TMP DP  RH WIND       PRES   REMARKS
LORDSBURG      FAIR      72  43  35 S8        30.11R
DEMING         CLEAR     69  48  47 NE6       30.12R
6HR MIN TEMP:  69; 6HR MAX TEMP:  76;

LAS CRUCES     CLEAR     69  42  37 SE3       30.16R
HOLLOMAN AFB   CLEAR     72  46  39 SE6       30.13R
ALAMOGORDO     CLEAR     68  45  42 CALM      30.15R
T OR C         CLEAR     70  45  40 W5        30.16R
6HR MIN TEMP:  69; 6HR MAX TEMP:  77;


$$
NMZ519>523-251300-
CENTRAL VALLEYS/CENTRAL HIGHLANDS

CITY           SKY/WX    TMP DP  RH WIND       PRES   REMARKS
ALBUQUERQUE    PTCLDY    72  41  32 SE7       30.21R
6HR MIN TEMP:  72; 6HR MAX TEMP:  79;

MORIARTY ARPT  FAIR      54  45  70 CALM      30.29R
6HR MIN TEMP:  52; 6HR MAX TEMP:  64;

CLINES CORNERS CLEAR     64  39  39 SW15      30.31S
6HR MIN TEMP:  62; 6HR MAX TEMP:  68;

BELEN          FAIR      67  42  40 S7        30.19R
6HR MIN TEMP:  67; 6HR MAX TEMP:  75;

SOCORRO        FAIR      65  40  40 CALM      30.17R
6HR MIN TEMP:  65; 6HR MAX TEMP:  75;


$$
NMZ524>526-539-540-251300-
SOUTHCENTRAL MOUNTAINS

CITY           SKY/WX    TMP DP  RH WIND       PRES   REMARKS
RUIDOSO        CLEAR     64  41  42 NW5       30.35R

$$
NMZ527>531-251300-
NORTHEAST HIGHLANDS/NORTHEAST PLAINS

CITY           SKY/WX    TMP DP  RH WIND       PRES   REMARKS
LAS VEGAS      CLEAR     61  40  45 S9        30.28S
6HR MIN TEMP:  60; 6HR MAX TEMP:  68;

RATON          NOT AVBL
CLAYTON        CLEAR     68  45  43 SW8       30.11S
6HR MIN TEMP:  66; 6HR MAX TEMP:  74;


$$
NMZ532>537-251300-
EASTCENTRAL PLAINS

CITY           SKY/WX    TMP DP  RH WIND       PRES   REMARKS
TUCUMCARI      CLEAR     76  53  44 SW17      30.08R
6HR MIN TEMP:  76; 6HR MAX TEMP:  83;

CANNON AFB     CLEAR     66  59  77 SW8       30.15S
6HR MIN TEMP:  66; 6HR MAX TEMP:  72;

CLOVIS AIRPORT NOT AVBL

$$
NMZ028-029-538-251300-
SOUTHEAST PLAINS

CITY           SKY/WX    TMP DP  RH WIND       PRES   REMARKS
ROSWELL        CLEAR     69  49  48 S7        30.10R
6HR MIN TEMP:  68; 6HR MAX TEMP:  80;

ARTESIA        CLEAR     68  50  52 S7        30.11R
CARLSBAD       CLEAR     73  52  47 S6        30.08S
6HR MIN TEMP:  73; 6HR MAX TEMP:  84;



$$


USA.gov is the U.S. government's official web portal to all federal, state and local government web resources and services.